M.P.E.C. 2023-C52 Issued 2023 February 9, 08:50 UT The Minor Planet Electronic Circulars contain information on unusual minor planets, routine data on comets and natural satellites, and occasional editorial announcements. They are published on behalf of Division F of the International Astronomical Union by the Minor Planet Center, Smithsonian Astrophysical Observatory, Cambridge, MA 02138, U.S.A. Prepared using the Tamkin Foundation Computer Network MPC@CFA.HARVARD.EDU URL https://www.minorplanetcenter.net/ ISSN 1523-6714 COMET C/2022 T1 (Lemmon) T. Prystavski reports cometary activity of A/2022 T1 (initially reported by Mt. Lemmon Survey (G96) on 2022 Oct. 29 UT) in five 120-second images taken from a roving location (247) on Feb. 1 UT, noting a very condensed 6" coma and a straight 8".4 tail at position angle 310 deg. R. Weryk reported a very condensed 0".7 coma and a broad 4" tail at position angle 300-350 degs. in four 45-second Pan-STARRS 2 (F52) images taken on Jan 18 UT. Observations: CK22T010*1C2022 10 03.49719408 37 42.614-01 21 23.94 21.24GVEC052G96 CK22T010 1C2022 10 03.50140308 37 42.773-01 21 25.56 20.69GVEC052G96 CK22T010 1C2022 10 03.50561608 37 42.877-01 21 26.68 20.61GVEC052G96 CK22T010 1C2022 10 03.50982808 37 43.014-01 21 28.48 21.10GVEC052G96 CK22T010 1C2022 10 29.49647808 50 57.404-03 56 36.96 20.70GVEC052G96 CK22T010 1C2022 10 29.50173008 50 57.556-03 56 38.69 20.60GVEC052G96 CK22T010 1C2022 10 29.50696108 50 57.664-03 56 40.74 20.50GVEC052G96 CK22T010 1C2022 10 29.51216908 50 57.797-03 56 42.79 20.74GVEC052G96 CK22T010 KC2022 10 30.11711508 51 12.53 -04 00 25.5 20.4 GVEC052L01 CK22T010 KC2022 10 30.13986808 51 13.06 -04 00 33.8 20.8 GVEC052L01 CK22T010 KC2022 10 30.14334908 51 13.13 -04 00 35.2 20.6 GVEC052L01 CK22T010 pC2022 10 30.14605908 51 13.18 -04 00 36.1 21.1 GVEC052L01 CK22T010 |C2022 11 04.29656 08 53 10.53 -04 32 11.3 20.0 GVEC052807 CK22T010 |C2022 11 04.30211 08 53 10.64 -04 32 12.9 20.4 GVEC052807 CK22T010 |C2022 11 04.30765 08 53 10.77 -04 32 14.8 20.6 GVEC052807 CK22T010 1C2022 11 04.72957 08 53 19.65 -04 34 50.0 VEC052Q62 CK22T010 1C2022 11 04.73733 08 53 19.82 -04 34 53.2 20.6 GVEC052Q62 CK22T010 DC2022 11 12.44765 08 55 45.28 -05 22 01.5 20.8 GVEC052695 CK22T010 DC2022 11 12.45818 08 55 45.45 -05 22 05.2 20.7 GVEC052695 CK22T010 DC2022 11 12.46871 08 55 45.62 -05 22 09.4 20.8 GVEC052695 CK22T010 KC2022 11 18.19443 08 57 10.01 -05 56 42.1 19.5 VvEC052A77 CK22T010 KC2022 11 18.20137 08 57 10.13 -05 56 43.3 19.8 VvEC052A77 CK22T010 KC2022 11 18.73501 08 57 16.819-05 59 54.10 19.1 VqEC052Q21 CK22T010 KC2022 11 18.73711 08 57 17.198-05 59 53.88 18.2 VqEC052Q21 CK22T010 KC2022 11 18.74551 08 57 17.093-06 00 00.32 18.6 VqEC052Q21 CK22T010 KC2022 11 18.74785 08 57 17.148-06 00 01.08 18.7 VqEC052Q21 CK22T010 KC2022 11 20.37937 08 57 36.66 -06 09 43.1 20.4 VqEC052H36 CK22T010 KC2022 11 20.39527 08 57 36.81 -06 09 47.9 20.1 VqEC052H36 CK22T010 KC2022 11 21.36019608 57 47.56 -06 15 30.4 20.2 GXEC052W62 CK22T010 KC2022 11 21.37000808 57 47.65 -06 15 33.9 19.6 GXEC052W62 CK22T010 KC2022 11 21.37923608 57 47.74 -06 15 37.2 19.5 GXEC052W62 CK22T010 :C2022 11 23.19279 08 58 06.26 -06 26 16.1 20.1 VqEC052950 CK22T010 :C2022 11 23.22996 08 58 06.55 -06 26 29.6 20.2 VqEC052950 CK22T010 KC2022 11 24.14765308 58 14.98 -06 31 52.3 19.8 GUEC052L06 CK22T010 KC2022 11 24.16865208 58 15.14 -06 31 58.9 19.4 GUEC052L06 CK22T010 KC2022 11 24.18965208 58 15.35 -06 32 06.3 19.9 GUEC052L06 CK22T010 rC2022 11 25.64139 08 58 27.660-06 40 28.63 19.3 GVEC052Q62 CK22T010 rC2022 11 25.69640 08 58 28.032-06 40 48.18 19.4 GVEC052Q62 CK22T010 KC2022 11 26.81218 08 58 36.30 -06 47 15.4 18.8 RqEC052Q11 CK22T010 KC2022 11 26.81796 08 58 36.34 -06 47 17.5 qEC052Q11 CK22T010 KC2022 11 26.82366 08 58 36.38 -06 47 19.1 qEC052Q11 CK22T010 KC2022 11 27.15610508 58 38.63 -06 49 14.5 19.4 RqEC052215 CK22T010 KC2022 11 27.15868808 58 38.66 -06 49 15.8 19.6 RqEC052215 CK22T010 KC2022 11 27.16127008 58 38.69 -06 49 16.8 19.5 RqEC052215 CK22T010 C2022 12 28.00569808 56 30.084-09 19 27.44 19.42oVEC052M22 CK22T010 C2022 12 28.00750408 56 30.084-09 19 27.73 19.36oVEC052M22 CK22T010 C2022 12 28.01113308 56 30.041-09 19 28.81 19.48oVEC052M22 CK22T010 C2022 12 28.01656108 56 29.983-09 19 29.89 19.70oVEC052M22 CK22T010 C2022 12 30.24492708 55 54.866-09 27 30.38 19.37cVEC052W68 CK22T010 C2022 12 30.24672708 55 54.758-09 27 31.21 19.71cVEC052W68 CK22T010 C2022 12 30.26555208 55 54.449-09 27 35.89 19.51cVEC052W68 CK22T010 C2022 12 30.27005808 55 54.437-09 27 36.76 19.43cVEC052W68 CK22T010 KC2023 01 18.12760 08 49 04.23 -10 13 50.5 18.9 GVEC052X03 CK22T010 KC2023 01 18.13876 08 49 03.91 -10 13 51.3 19.0 GVEC052X03 CK22T010 KC2023 01 18.14989 08 49 03.59 -10 13 52.3 19.0 GVEC052X03 CK22T010 KC2023 01 18.16103 08 49 03.30 -10 13 53.3 19.0 GVEC052X03 CK22T010 C2023 01 18.51152308 48 54.030-10 14 22.77 19.67wUEC052F52 CK22T010 C2023 01 18.52038308 48 53.785-10 14 23.47 19.70wUEC052F52 CK22T010 C2023 01 18.52922608 48 53.553-10 14 24.13 19.62wUEC052F52 CK22T010 C2023 01 18.53806008 48 53.303-10 14 24.84 19.67wUEC052F52 CK22T010 C2023 01 18.94154808 48 42.780-10 14 52.58 19.28cVEC052M22 CK22T010 C2023 01 18.96973608 48 41.938-10 14 55.54 19.24cVEC052M22 CK22T010 C2023 01 18.97288908 48 41.885-10 14 55.10 19.21cVEC052M22 CK22T010 C2023 01 18.97604108 48 41.767-10 14 55.14 19.28cVEC052M22 CK22T010 C2023 01 20.90339108 47 50.237-10 17 03.34 19.42cVEC052M22 CK22T010 C2023 01 20.90519308 47 50.134-10 17 03.84 18.93cVEC052M22 CK22T010 C2023 01 20.92299108 47 49.634-10 17 05.06 19.52cVEC052M22 CK22T010 C2023 01 20.94249708 47 49.109-10 17 05.71 19.46cVEC052M22 CK22T010 C2023 01 23.93368908 46 26.702-10 19 27.12 19.29cVEC052M22 CK22T010 C2023 01 23.93594608 46 26.662-10 19 27.30 19.61cVEC052M22 CK22T010 C2023 01 23.96092708 46 25.858-10 19 28.02 19.59cVEC052M22 CK22T010 C2023 01 23.96636408 46 25.730-10 19 28.67 19.16cVEC052M22 CK22T010 C2023 01 24.50967408 46 10.517-10 19 48.43 19.12oVEC052T05 CK22T010 C2023 01 24.51651608 46 10.332-10 19 48.86 18.81oVEC052T05 CK22T010 C2023 01 24.52710108 46 10.068-10 19 49.01 19.00oVEC052T05 CK22T010 C2023 01 24.53168308 46 09.936-10 19 48.68 18.86oVEC052T05 CK22T010 C2023 01 24.81403908 46 02.081-10 19 56.03 19.07cVEC052M22 CK22T010 C2023 01 24.81584308 46 01.956-10 19 55.09 19.13cVEC052M22 CK22T010 C2023 01 24.81901408 46 01.862-10 19 56.35 19.34cVEC052M22 CK22T010 C2023 01 24.85446708 46 01.025-10 19 55.78 19.14cVEC052M22 CK22T010 C2023 01 24.91503908 45 59.230-10 19 57.97 19.27cVEC052M22 CK22T010 C2023 01 24.92135108 45 59.004-10 19 58.84 19.08cVEC052M22 CK22T010 C2023 01 26.99157408 45 00.365-10 20 39.70 18.57cVEC052M22 CK22T010 C2023 01 26.99434508 45 00.223-10 20 39.84 19.18cVEC052M22 CK22T010 C2023 01 27.00004908 45 00.082-10 20 40.13 19.32cVEC052M22 CK22T010 C2023 01 27.03480408 44 59.088-10 20 41.35 19.05cVEC052M22 CK22T010 1C2023 01 27.25396608 44 52.919-10 20 45.64 18.89GVEC052G96 CK22T010 1C2023 01 27.25911708 44 52.768-10 20 45.28 18.80GVEC052G96 CK22T010 1C2023 01 27.26426508 44 52.602-10 20 45.67 18.92GVEC052G96 CK22T010 1C2023 01 27.26944008 44 52.465-10 20 45.71 18.88GVEC052G96 CK22T010 C2023 01 27.96535008 44 32.539-10 20 48.55 19.70cVEC052M22 CK22T010 C2023 01 27.97133408 44 32.299-10 20 48.66 19.14cVEC052M22 CK22T010 C2023 01 27.97885708 44 32.078-10 20 48.73 18.90cVEC052M22 CK22T010 C2023 01 27.98400208 44 31.980-10 20 48.12 18.97cVEC052M22 CK22T010 V2023 02 01.26922 08 42 28.18 -10 19 58.3 18.8 TVEC052247 CK22T010 v2023 02 01.26922 1 289.1467 -30.5263 1710 EC052247 CK22T010 V2023 02 01.27090 08 42 28.13 -10 19 58.3 19.0 NVEC052247 CK22T010 v2023 02 01.27090 1 289.1467 -30.5263 1710 EC052247 CK22T010 V2023 02 01.27256 08 42 28.09 -10 19 58.2 VEC052247 CK22T010 v2023 02 01.27256 1 289.1467 -30.5263 1710 EC052247 CK22T010 V2023 02 01.27589 08 42 27.99 -10 19 58.3 VEC052247 CK22T010 v2023 02 01.27589 1 289.1467 -30.5263 1710 EC052247 Observer details: 215 Buchloe. Observer W. Hasubick. 0.44-m f/4.6 reflector + CCD. 247 Roving Observer. Observer T. Prystavski. T72 3411 mm f/6.8 PlaneWave L-500 + CCD. 695 Kitt Peak. Observer J. V. Scotti. 2.3-m f/9 reflector + CCD. 807 Cerro Tololo Observatory, La Serena. Observers T. Linder, R. Holmes, L. Horn. 1.00-m f/10.0 astrograph + CCD. 950 La Palma. Observer M. Masek. 0.25-m f/6.8 reflector + CCD. A77 Observatoire Chante-Perdrix, Dauban. Observer F. Kugel. 0.4-m f/2.8 reflector + CCD. F52 Pan-STARRS 2, Haleakala. Observers J. Bulger, T. Dukes, T. Lowe, A. Schultz, M. Willman. Measurers K. Chambers, S. Chastel, T. de Boer, L. Denneau, J. Fairlamb, H. Flewelling, M. Huber, C.-C. Lin, E. Magnier, Y. Ramanjooloo, R. Wainscoat, R. Weryk. 1.8-m Ritchey-Chretien + CCD. G96 Mt. Lemmon Survey. Observers J. B. Fazekas, D. C. Fuls, A. Serrano. Measurers E. J. Christensen, D. Fay, J. B. Fazekas, D. C. Fuls, A. R. Gibbs, A. D. Grauer, H. Groeller, J. K. Hogan, R. A. Kowalski, S. M. Larson, G. J. Leonard, D. Rankin, R. L. Seaman, A. Serrano, F. C. Shelly, K. W. Wierzchos. 1.5-m reflector + 10K CCD. H36 Sandlot Observatory, Scranton. Observer G. Hug. 0.56-m f/4.8 .56 meter reflector + CCD. L01 Visnjan Observatory, Tican. Observers K. Korlevic, L. Poropat. Measurer K. Korlevic. 1.0-m f/2.9 reflector + CCD. L06 Sormano 2 Observatory, Bellagio Via Lattea. Observer G. Ventre. Measurers P. Sicoli, G. Ventre. 0.36m Schmidt Cassegrain + CCD. M22 ATLAS South Africa, Sutherland. Observers L. Denneau, R. Siverd, J. Tonry, H. Weiland. Measurers L. Denneau, N. Erasmus, A. Fitzsimmons, A. Lawrence, J. Robinson, R. Siverd, J. Tonry, H. Weiland. 0.5-m Reflector + CCD. Q11 Shinshiro. Observer T. Ikemura. Measurer H. Sato. 0.38-m f/4.2 reflector + CCD. Q21 Southern Utsunomiya. Observer H. Nohara. 0.4-m f/3.8 Astrograph + CCD. Q62 iTelescope Observatory, Siding Spring. Observers H. Sato, M. G. J. Breukers. 0.43-m f/6.8 astrograph + CCD, 0.43-m f/6.8 Corrected Dall- Kirkham + CCD. T05 ATLAS-HKO, Haleakala. Observers L. Denneau, R. Siverd, J. Tonry, H. Weiland. Measurers L. Denneau, N. Erasmus, A. Fitzsimmons, A. Lawrence, J. Robinson, R. Siverd, J. Tonry, H. Weiland. 0.5-m Reflector + CCD. W62 Comet Hunter Observatory2, New Ringgold. Observer J. Maikner. 0.30-m f/3.8 Riccardi-Honders + CCD. W68 ATLAS Chile, Rio Hurtado. Observers L. Denneau, R. Siverd, J. Tonry, H. Weiland. Measurers L. Denneau, N. Erasmus, A. Fitzsimmons, A. Lawrence, J. Robinson, R. Siverd, J. Tonry, H. Weiland. 0.5-m Reflector + CCD. X03 Observatoire SADR, Poroto. Observers J. L. Virlichie, P. Traverse, H. Roy, G. Houdin. Measurer J. L. Virlichie. 0.36-m f/4.8 reflector + CCD. Orbital elements: C/2022 T1 (Lemmon) Epoch 2023 Feb. 25.0 TT = JDT 2460000.5 T 2024 Feb. 17.60786 TT Rudenko q 3.4443912 (2000.0) P Q z +0.0002000 Peri. 324.33466 -0.89464138 +0.31052123 +/-0.0000328 Node 236.92135 -0.26601444 -0.94787550 e 0.9993113 Incl. 22.54281 -0.35896115 -0.07147449 From 98 observations 2022 Oct. 3-2023 Feb. 1, mean residual 0".6. Ephemeris: Date TT R. A. (2000) Decl. Delta r Elong. Phase m1 m2 2023 01 10 08 52 23.3 -09 58 56 4.1784 4.9826 141.2 7.1 19.1 ... 2023 01 25 08 45 56.8 -10 20 02 4.0140 4.8923 150.1 5.7 18.9 ... 2023 02 02 08 42 07.0 -10 19 36 3.9507 4.8447 152.3 5.4 18.8 ... 2023 02 08 08 39 13.4 -10 14 03 3.9147 4.8091 152.2 5.5 18.8 2023 02 09 08 38 44.7 -10 12 42 3.9096 4.8032 152.0 5.5 18.8 2023 02 10 08 38 16.3 -10 11 14 3.9048 4.7973 151.8 5.6 18.8 ... 2023 02 16 08 35 29.9 -10 00 03 3.8819 4.7620 149.9 6.0 18.7 ... 2023 02 24 08 32 07.0 -09 39 19 3.8661 4.7153 145.5 6.8 18.7 ... 2023 03 11 08 27 21.4 -08 46 45 3.8784 4.6288 134.5 8.8 18.6 M. P. C. Staff (C) Copyright 2023 MPC M.P.E.C. 2023-C52
